Location: Goettingen
(51.5300°N, 9.9433°E)
Time: 22:49:15
(UTC+01:00)

ISS - Pass Details

Date: 10 November 2019
Orbit: 412 x 421 km, 51.6° (Epoch: 15 November)

Event Time Altitude Azimuth Distance (km) Brightness Sun altitude
Exits shadow 05:00:39 27° 152° (SSE) 845 -2.0 -23.1°
Drops below altitude 10° 05:02:30 10° 133° (SE) 1,501 -0.4 -22.8°
Sets 05:04:39 0° 126° (SE) 2,361 0.9 -22.5°
